Dewpoint
52 52 52 53 52 52 51 52 52 51 52 41 39 29 24 22 17 24 30 31 25 14 13 22 24 19 23 26 22 23 21 20 21 19 22 15 21 18 21 21 14 16 21 20 19 17 6 14 9 11 15 14 15 21 22 24 26 23 18 16 21 24 7 1 4 5 8 7 8 16 15 16 10 12 15 12 9 7 8 9 7 6 8 7 3 5 10
52 52 52 53 52 52 52 52 51 50 49 42 32 19 18 20 14 18 28 30 29 18 7 10 12 17 22 22 23 23 22 22 22 19 20 22 19 17 19 19 19 18 21 21 18 18 -3 7 9 10 13 12 23 22 23 23 23 17 17 9 21 2 7 4 -1 0 2 -3 1 5 12 12 12 7 12 13 13 11 8 6 1 7 11 10 7 6 8
52 52 52 52 52 51 52 52 50 51 48 40 33 17 22 19 23 25 23 25 22 13 19 17 18 21 16 16 17 19 18 23 24 21 22 24 20 15 17 20 21 20 22 22 22 22 8 8 12 9 9 12 24 22 20 17 23 27 29 31 25 7 8 2 -6 -6 -5 -5 -3 0 3 8 7 10 14 15 12 12 13 7 5 6 7 13 9 10 14
51 51 51 51 51 51 51 51 50 51 47 45 31 24 20 17 4 13 16 19 23 23 24 22 19 14 10 14 14 16 15 18 21 24 24 24 24 21 21 22 21 20 20 19 20 19 20 9 7 11 11 12 15 24 20 22 26 29 29 26 19 7 12 8 5 2 -1 6 6 4 15 9 11 13 15 14 11 11 7 8 7 10 14 13 14 16 17
50 51 51 51 51 51 51 50 50 50 47 43 26 23 18 22 19 10 4 20 17 19 23 23 22 13 20 15 13 6 17 15 18 26 15 22 23 24 20 21 17 18 19 19 17 20 17 16 11 12 8 11 12 14 23 24 27 30 26 23 8 3 6 13 10 6 9 7 6 9 12 11 13 14 14 14 13 9 7 10 10 15 15 10 14 14 17
50 50 50 51 51 51 52 49 50 49 49 44 26 17 20 17 13 21 21 15 2 18 13 22 22 22 22 14 20 18 13 17 10 19 22 23 22 17 14 19 23 23 21 18 4 11 10 10 -3 9 9 9 16 16 19 24 26 25 20 18 12 7 4 4 9 8 12 13 13 14 14 15 16 15 14 13 13 11 8 8 12 14 14 11 13 15 16
49 49 49 50 50 51 51 51 50 49 45 39 25 17 14 21 19 21 22 14 12 18 17 22 20 20 23 23 21 18 17 17 20 17 20 16 15 17 7 14 18 20 22 18 10 16 -0 7 4 8 9 11 14 9 10 23 22 21 17 14 6 5 3 3 7 12 14 13 13 13 13 14 15 12 12 13 12 11 11 12 12 12 12 12 14 16 17
49 49 49 49 50 50 51 51 50 47 42 31 22 22 16 12 16 11 21 21 18 18 17 19 18 17 21 15 17 21 22 17 21 20 18 11 16 20 17 17 20 22 23 19 11 12 10 8 8 11 11 15 11 9 10 11 16 18 17 13 13 6 7 13 7 9 12 10 10 12 13 12 13 12 12 12 12 12 12 13 12 13 12 12 14 17 15
49 49 48 48 49 49 50 50 50 50 42 22 26 20 21 19 23 20 16 17 15 19 17 17 19 17 19 16 16 19 17 17 20 17 21 17 17 19 17 19 22 23 22 22 21 22 19 17 18 18 15 15 16 9 8 20 16 15 13 11 12 7 10 8 3 11 9 6 6 11 12 15 13 12 12 12 12 12 12 13 13 12 12 13 15 13 10
49 49 49 48 48 49 48 49 48 46 42 23 23 18 22 22 21 25 21 12 20 11 16 18 20 11 15 20 21 16 18 22 23 16 20 26 22 20 20 21 23 19 16 9 14 18 22 22 22 22 21 21 22 23 22 21 17 14 14 11 12 6 8 10 6 12 7 6 11 11 9 8 1 10 12 13 12 12 12 12 12 12 12 12 11 10 6
50 49 48 48 48 48 48 48 49 43 31 22 19 18 24 19 17 21 22 16 13 13 17 18 15 15 21 22 23 23 24 23 24 7 8 24 22 24 23 24 20 15 13 15 24 24 25 26 26 24 24 23 23 22 22 23 23 19 15 13 6 5 8 8 7 7 9 12 11 9 6 -1 1 15 17 14 11 11 11 11 12 10 8 13 11 5 5
50 49 48 48 47 47 47 48 46 45 39 26 27 25 27 25 24 24 22 16 6 9 18 13 21 21 18 19 23 21 18 20 20 23 12 17 22 26 25 24 14 13 19 24 24 25 23 24 26 24 25 25 24 24 23 23 22 23 19 15 10 10 8 11 2 9 10 11 8 9 1 0 14 16 16 14 13 11 10 9 6 7 9 13 6 4 4
50 50 48 48 48 47 47 47 48 46 41 33 30 27 27 28 23 21 20 16 5 12 11 9 12 16 19 23 20 21 21 22 22 26 24 21 17 23 25 22 19 21 26 26 25 22 15 10 11 19 19 22 22 22 22 21 22 23 22 19 15 10 11 8 10 2 5 5 5 4 5 14 17 17 15 16 12 10 9 4 5 7 11 7 3 4 6
49 48 48 48 48 47 46 45 47 47 45 37 32 30 27 27 20 21 23 19 15 12 10 15 14 17 19 21 17 21 19 18 19 21 17 22 22 22 22 25 24 29 27 26 22 13 10 10 0 10 8 7 6 7 16 22 22 22 21 22 21 13 5 5 12 4 4 4 10 12 13 13 13 13 15 14 10 7 4 1 1 2 5 4 5 6 6
49 48 48 48 48 48 48 47 44 44 43 41 37 36 35 31 26 20 24 24 20 17 16 12 15 19 20 20 22 17 16 15 16 17 21 25 24 25 23 26 25 26 25 22 18 14 6 3 3 4 4 5 -2 -3 2 1 19 23 22 21 20 19 15 14 9 7 4 9 11 8 3 3 6 15 18 15 10 7 4 3 2 3 4 6 6 5 5
49 48 48 47 47 47 47 47 48 46 43 40 34 35 35 30 27 27 25 23 23 17 18 23 22 21 21 21 21 16 12 14 15 16 15 19 20 24 27 25 26 27 24 16 14 7 3 4 -2 -3 -5 -5 -2 -1 -1 6 6 17 20 20 19 16 15 8 9 8 8 10 8 7 5 5 13 14 16 13 7 7 3 1 -2 2 5 6 6 5 6
48 48 48 47 47 47 47 47 45 46 47 41 33 33 34 36 29 26 23 25 23 13 23 26 26 24 22 21 19 18 21 18 18 9 10 14 18 22 25 26 26 25 21 16 14 11 12 4 -4 -3 -0 2 2 1 6 6 7 6 10 13 12 8 1 4 2 2 8 8 8 6 5 5 13 15 12 8 6 5 1 -7 -7 5 6 6 6 6 7
48 49 48 47 47 47 47 47 46 44 42 42 33 33 34 35 32 29 28 26 25 20 24 26 26 23 23 22 18 22 24 24 23 19 16 18 20 20 23 22 17 22 23 12 11 9 2 1 3 -0 0 7 9 6 -0 6 3 4 8 12 8 2 2 5 8 6 11 14 11 10 8 14 16 12 10 8 6 1 -3 -5 1 5 5 6 7 7 8
48 48 48 47 47 47 47 47 46 47 46 44 33 34 34 36 35 30 29 28 27 22 24 27 27 25 26 32 27 25 25 26 23 5 10 15 8 22 26 24 21 14 20 8 11 7 3 0 10 -1 1 6 11 4 9 6 4 12 13 12 10 10 8 6 8 12 11 11 10 8 8 14 11 11 9 6 2 -3 -2 4 6 5 6 7 8 8 9
48 48 48 48 46 46 46 46 46 45 43 43 36 31 32 36 36 31 30 28 24 30 27 30 31 30 32 31 25 24 24 22 22 12 12 8 22 21 17 11 18 19 15 15 5 9 5 6 5 10 -1 -2 8 14 5 7 13 15 13 6 8 9 8 10 10 13 13 11 8 4 1 11 11 12 4 4 1 2 5 6 6 7 7 8 9 10 10
47 47 48 48 46 46 46 46 46 46 46 46 40 32 32 34 36 35 32 31 29 26 24 30 29 30 32 31 31 31 24 21 23 17 22 18 23 16 2 -6 2 15 11 6 7 7 9 6 6 7 7 8 10 9 4 4 6 15 15 8 6 8 6 9 9 11 9 8 5 5 8 8 12 6 2 2 4 6 6 6 5 7 9 9 10 10 11
47 47 47 48 47 46 46 46 46 46 45 44 40 31 30 33 34 36 36 34 31 28 30 31 33 33 34 35 34 34 33 33 33 29 24 19 23 14 6 18 20 18 17 14 12 8 11 11 6 6 6 8 13 9 9 4 4 6 14 9 6 17 9 9 9 7 9 7 8 8 8 10 9 3 3 5 6 7 7 7 7 8 9 11 10 10 11
46 46 46 47 47 47 46 45 46 45 46 44 39 31 30 32 34 36 32 30 31 31 32 32 33 33 34 36 37 37 36 36 34 32 31 26 14 20 21 20 16 23 25 21 15 9 13 12 13 9 6 8 11 8 4 4 4 7 11 17 14 17 15 15 14 9 11 8 8 10 7 3 3 4 6 6 6 7 8 9 9 10 11 11 11 11 12
46 46 46 46 46 46 46 46 46 46 44 42 39 33 34 35 36 33 28 29 28 23 23 27 23 24 26 29 32 34 35 34 34 35 34 31 14 14 22 25 25 23 23 25 22 17 13 13 15 7 7 10 5 5 6 9 9 12 4 8 7 14 17 12 9 9 4 -1 -2 -2 -1 1 4 5 6 7 8 8 9 10 10 11 12 12 13 13 13
46 46 45 44 46 45 46 45 45 45 45 42 39 39 38 37 38 35 30 19 19 24 19 18 22 28 30 31 34 34 33 34 36 36 35 33 28 17 18 27 28 23 23 26 24 21 13 13 15 9 9 15 11 12 16 7 8 13 5 5 10 10 14 8 8 4 3 -1 -1 -1 2 5 6 6 7 7 8 9 10 11 11 12 13 13 13 13 14
46 46 45 44 45 45 45 45 44 43 42 42 41 36 36 36 39 37 31 29 27 23 19 16 21 32 31 32 29 32 34 34 34 35 34 34 32 31 31 30 29 26 26 25 21 18 16 16 8 7 8 13 17 10 13 17 13 12 9 6 9 11 13 4 5 4 1 1 -1 3 5 6 6 7 8 9 9 10 10 11 12 12 12 13 13 13 13
46 46 46 46 45 44 44 44 43 43 42 41 38 37 37 37 39 38 31 30 23 13 23 19 19 25 31 29 33 35 35 34 33 33 34 34 34 34 31 28 27 26 22 20 18 13 11 12 11 14 11 15 10 13 11 13 11 5 7 9 12 11 6 7 7 3 2 1 3 6 5 5 6 8 9 9 10 11 11 12 12 13 13 13 13 13 13
45 46 45 46 45 44 44 44 43 43 41 40 39 37 37 37 38 39 39 36 18 18 22 19 20 25 28 33 35 34 34 33 31 31 31 31 33 32 33 30 26 22 19 17 17 16 11 12 16 11 7 11 13 14 9 9 8 12 13 9 13 8 6 8 7 5 4 6 7 8 8 8 9 9 10 11 12 12 12 12 12 13 14 14 13 12 13
45 45 46 45 45 45 45 44 44 45 44 40 31 32 32 37 38 40 40 38 31 29 28 25 25 25 15 23 32 31 31 31 31 30 30 28 28 30 31 30 26 21 16 14 11 9 12 18 14 15 18 21 13 13 9 11 5 9 12 12 14 12 12 11 9 9 8 9 9 9 10 9 10 10 11 12 13 13 13 13 13 14 14 14 13 13 13
45 45 46 45 45 44 44 44 44 45 43 33 29 25 23 20 30 39 41 38 34 31 25 18 17 15 24 28 24 26 28 30 30 29 29 28 28 28 29 28 25 27 22 18 14 15 16 16 17 21 22 23 17 11 8 4 5 14 18 15 13 13 13 14 14 10 8 10 11 11 12 11 12 12 13 13 13 14 14 14 14 14 14 15 14 14 13
44 45 45 46 45 44 44 42 44 44 39 28 26 20 18 13 16 37 42 39 36 27 22 24 17 16 19 29 26 26 27 28 28 28 28 27 27 27 25 22 23 24 18 15 15 18 17 14 14 19 23 26 12 4 6 1 2 2 12 12 12 12 12 11 12 12 12 12 13 13 13 13 14 13 13 13 13 14 14 14 15 16 16 16 15 14 14
44 44 44 45 45 45 44 43 40 38 32 28 21 16 17 16 22 40 41 40 38 28 21 17 10 13 12 20 20 26 27 27 28 25 25 27 22 23 23 25 23 25 27 15 19 15 17 22 16 17 17 25 16 3 -1 -1 1 5 6 9 11 12 12 12 12 13 13 14 13 13 13 13 13 13 12 14 14 15 14 14 15 15 16 16 15 14 13
43 44 44 44 45 45 45 44 44 37 32 35 40 42 42 42 43 41 39 39 24 17 17 18 6 10 11 6 18 22 23 24 23 20 14 23 22 23 18 24 24 26 29 21 15 16 18 21 18 13 19 18 11 6 -0 2 5 7 8 11 10 11 12 13 13 14 13 14 14 13 12 13 13 14 14 14 15 15 15 15 15 15 14 13 12 11 11
42 43 43 43 43 43 42 42 42 42 37 30 24 27 31 41 41 41 38 28 21 17 18 11 3 4 5 16 13 17 24 17 15 20 13 22 27 22 18 20 22 18 23 19 22 21 20 18 14 16 16 12 10 3 2 7 9 9 9 9 10 11 13 13 13 13 14 15 15 15 15 15 15 14 15 15 15 14 15 14 14 13 11 10 9 10 11
41 41 41 41 43 42 42 38 30 31 28 30 33 32 34 41 42 40 34 27 16 11 15 15 15 9 12 13 8 16 21 21 17 18 13 20 23 18 21 14 17 15 13 21 16 19 14 18 20 11 14 7 4 2 6 9 8 9 9 10 11 13 13 12 12 13 14 15 15 15 15 14 14 14 14 14 14 14 13 13 12 11 9 8 9 10 10
41 40 41 43 43 37 32 32 32 28 26 23 24 32 42 43 40 35 30 26 21 16 16 12 13 8 4 4 7 15 22 18 18 15 16 16 16 18 17 12 13 18 23 18 13 15 15 23 16 13 6 4 4 4 9 11 9 9 10 10 12 13 13 13 14 14 15 15 15 15 15 15 15 14 14 14 13 13 13 11 10 9 9 9 9 10 10
42 42 42 39 30 29 22 22 31 29 23 28 34 41 42 38 33 29 28 28 27 24 21 15 17 11 14 10 14 18 20 12 18 12 10 14 13 12 12 10 12 18 10 9 9 9 14 19 10 7 3 3 8 15 15 13 11 10 11 12 14 14 14 15 15 15 15 14 14 14 14 14 14 14 13 12 11 12 10 10 9 8 8 8 10 10 10
42 41 28 27 25 15 12 15 21 28 39 40 39 27 26 25 15 19 21 21 18 26 18 19 14 13 16 11 8 17 15 10 14 10 10 6 14 8 12 11 12 17 7 6 8 20 12 10 8 8 9 15 16 17 15 14 13 13 13 14 14 15 15 15 15 15 14 13 13 13 14 13 12 12 12 11 11 10 10 9 8 8 9 9 10 11 11
38 28 25 20 21 10 13 16 27 40 36 35 29 16 14 15 16 12 10 11 15 18 15 16 10 18 14 9 14 23 18 13 13 7 10 14 10 8 9 8 10 9 2 3 10 13 6 5 2 3 9 10 16 13 13 14 13 14 15 15 16 15 16 16 16 15 14 14 14 14 14 13 12 12 12 11 11 10 9 8 8 8 9 10 10 11 12
26 18 15 14 14 14 29 31 38 32 30 15 15 17 9 13 18 5 11 7 9 10 14 13 15 18 21 17 12 14 25 18 12 12 13 16 23 8 10 8 9 7 4 -1 6 7 5 1 -1 3 7 5 12 11 12 12 13 15 15 16 16 16 16 16 16 16 15 15 15 15 15 14 14 13 12 11 11 9 8 8 8 8 9 10 11 11 9
26 17 13 11 14 20 28 31 26 19 15 9 8 8 6 6 14 13 10 5 8 7 13 13 9 12 13 15 17 12 22 20 13 9 10 13 14 15 7 5 11 4 5 5 9 2 -1 1 -1 -1 3 12 10 10 11 12 14 15 16 16 16 16 16 16 16 15 15 15 15 14 14 14 14 13 12 12 10 9 8 8 8 9 10 10 9 8 7
27 18 13 27 30 30 22 18 16 11 9 10 5 3 7 6 9 10 6 0 1 11 15 12 10 11 13 16 15 14 14 15 13 12 13 11 21 11 6 6 5 -1 -3 7 3 -3 0 1 -0 -2 5 10 11 11 13 14 15 16 16 16 16 16 16 16 15 15 15 15 14 14 14 13 13 13 12 11 10 9 9 9 8 9 9 10 10 9 7
39 36 31 19 13 13 16 13 13 10 5 5 -0 -4 0 4 6 -1 -0 7 11 8 11 13 13 20 16 15 13 13 14 23 19 12 9 7 19 6 -1 -1 -2 -4 1 2 1 0 -1 1 -1 3 12 11 12 13 14 15 16 16 16 16 16 16 16 16 16 15 15 15 14 14 14 13 12 12 11 10 8 7 8 8 8 9 10 9 7 7 6
30 24 13 11 11 8 10 6 10 4 2 4 -1 -2 -1 -4 -0 3 -2 5 8 5 11 9 12 14 10 11 11 13 14 18 24 9 8 6 2 -1 1 1 -1 4 3 -2 -2 1 -2 -2 -0 10 11 12 13 14 15 16 16 16 16 16 16 16 16 16 16 15 14 14 14 14 13 12 11 11 10 9 8 7 7 7 9 9 9 7 6 5 5
14 13 10 6 5 7 5 3 7 1 -0 1 12 1 -1 -4 3 1 1 7 7 7 10 11 14 13 14 15 10 17 20 14 18 9 5 6 4 4 2 2 0 -4 1 2 -5 -6 -7 -1 9 11 13 13 14 15 16 17 17 16 16 16 16 16 16 16 15 15 14 13 13 13 12 12 11 10 9 9 9 8 7 7 9 8 7 6 5 4 4
16 7 6 4 4 6 4 0 3 1 5 12 10 8 3 6 6 5 10 11 10 10 12 13 9 10 14 11 8 8 2 5 6 7 8 1 1 1 4 5 -3 -1 -1 -8 -5 -8 -6 -1 11 12 13 14 15 16 17 17 17 17 16 15 16 16 16 16 15 14 13 12 12 12 11 11 9 9 8 8 9 8 8 8 8 7 6 4 3 3 3
12 11 9 5 4 3 7 1 3 6 6 9 10 7 12 16 15 16 16 13 14 13 13 10 15 15 12 13 7 6 5 4 5 6 2 1 3 4 8 1 -0 -5 -6 -8 -8 -9 -4 8 11 14 15 16 16 16 17 17 17 17 16 16 16 16 16 16 14 13 12 12 12 11 10 9 8 8 8 7 7 8 8 7 7 6 5 3 3 3 3
7 10 7 4 4 4 4 6 7 13 14 16 16 13 17 19 16 10 11 12 16 16 14 12 14 6 10 9 7 5 5 8 1 2 4 2 1 -4 -7 -7 -5 -4 -2 -4 -4 -4 6 11 13 16 17 16 16 16 17 17 17 17 17 17 16 16 16 15 13 12 12 12 11 10 9 8 8 7 7 7 7 7 7 7 6 5 3 3 2 2 2
15 7 5 2 5 9 8 15 14 12 12 12 15 16 15 14 13 9 10 13 16 15 16 13 12 7 6 9 4 2 3 3 1 -0 1 -3 -3 -6 -7 -9 -9 -6 -3 1 5 10 11 13 13 14 14 14 15 16 17 17 17 17 17 17 16 16 15 14 13 12 12 11 10 9 8 8 7 7 7 7 6 6 6 5 4 3 2 1 1 1 1
9 9 12 10 9 9 13 10 15 9 7 9 12 10 9 11 8 10 11 14 10 9 11 16 15 11 7 4 3 -1 -0 -1 1 3 -1 1 -4 -5 -6 -9 -7 -3 -1 0 5 11 14 16 12 13 14 14 15 17 17 17 18 17 17 17 16 16 14 13 12 11 11 11 10 8 7 7 7 6 6 6 6 6 5 3 2 1 1 0 0 0 0
11 12 11 9 7 8 14 6 7 3 5 11 9 9 13 10 11 11 14 9 9 9 9 8 7 5 4 0 -3 -4 0 4 4 2 -2 -4 -2 -3 -4 -5 -2 -0 7 12 12 14 14 14 12 13 14 14 17 18 17 17 16 15 15 15 15 14 13 12 11 11 10 10 8 10 7 6 7 6 6 6 5 4 2 2 1 1 0 1 0 -0 -1
6 6 8 11 9 8 10 11 10 9 11 10 13 10 17 9 13 11 15 12 8 9 7 8 6 4 1 -1 -0 0 0 -1 2 3 1 0 -1 -2 -4 -4 5 12 14 12 14 13 14 14 14 14 14 17 17 17 16 13 13 14 13 13 13 12 11 11 10 10 9 8 8 6 7 6 6 6 6 5 3 2 0 -0 1 0 0 0 0 0 -0